Bangor, ME

4:48 PM EDT on August 21, 2017 (GMT -0400)
Bangor International

Weather History for KBGR - February, 2012

Change the Weather History Date:

Thursday, February 9, 2012

  Actual Average Record
Temperature  
Mean Temperature 27 °F 19 °F  
Max Temperature 40 °F 30 °F 51 °F (1990)
Min Temperature 13 °F 9 °F -24 °F (1934)
Degree Days  
Heating Degree Days 38 46  
Month to date heating degree days 373 419  
Since 1 July heating degree days 4082 4826  
Cooling Degree Days 0 0  
Month to date cooling degree days 0 0  
Year to date cooling degree days 0 0  
Moisture  
Dew Point 14 °F    
Average Humidity 58    
Maximum Humidity 84    
Minimum Humidity 32    
Precipitation  
Precipitation 0.00 in 0.09 in 1.09 in (1969)
Month to date precipitation 0.12 0.79  
Year to date precipitation 2.07 3.68  
Snow  
Snow 0.00 in 0.60 in 17.30 in (2013)
Month to date snowfall T 4.8  
Since 1 July snowfall 34.3 40.8  
Snow Depth 2.00 in    
Sea Level Pressure  
Sea Level Pressure 29.99 in    
Wind  
Wind Speed 2 mph (NW)    
Max Wind Speed 10 mph    
Max Gust Speed 14 mph    
Visibility 10 miles    
Events      
T = Trace of Precipitation, MM = Missing Value Source: NWS Daily Summary

Daily Weather History Graph

Daily Weather History Graph

Search for Another Location

Airport or City:

Trip Planner

Search our weather history database for the weather conditions in past years. The results will help you decide how hot, cold, wet, or windy it might be!

Date:

Astronomy

Feb. 09, 2012 Rise Set
Actual Time 6:45 AM EST 4:54 PM EST
Civil Twilight 6:14 AM EST 5:24 PM EST
Nautical Twilight 5:40 AM EST 5:59 PM EST
Astronomical Twilight 5:06 AM EST 6:33 PM EST
Moon 7:28 PM EST (2/9) 7:12 AM EST (2/9)
Length of Visible Light 11h 10m
Length of Day
10h 09m
Waning Gibbous, 96% of the Moon is Illuminated
Feb 9
Waning Gibbous
Feb 14
Last Quarter
Feb 21
New
Feb 29
First Quarter
Mar 8
Full

Hourly Weather History & Observations

Time (EST) Temp. Windchill Dew Point Humidity Pressure Visibility Wind Dir Wind Speed Gust Speed Precip Events Conditions
12:53 AM 25.0 °F 20.7 °F 12.9 °F 60% 30.01 in 10.0 mi SSW 3.5 mph - N/A   Mostly Cloudy
1:53 AM 25.0 °F - 12.0 °F 58% 30.03 in 10.0 mi Calm Calm - N/A   Mostly Cloudy
2:53 AM 19.0 °F - 12.0 °F 74% 30.01 in 10.0 mi Calm Calm - N/A   Mostly Cloudy
3:53 AM 19.9 °F - 12.0 °F 71% 29.99 in 10.0 mi Calm Calm - N/A   Scattered Clouds
4:53 AM 17.1 °F - 12.0 °F 81% 30.01 in 10.0 mi Calm Calm - N/A   Partly Cloudy
5:53 AM 16.0 °F - 10.9 °F 81% 30.00 in 10.0 mi Calm Calm - N/A   Partly Cloudy
6:53 AM 12.9 °F - 9.0 °F 84% 30.01 in 10.0 mi Calm Calm - N/A   Scattered Clouds
7:53 AM 17.1 °F - 12.0 °F 81% 30.01 in 10.0 mi Calm Calm - N/A   Scattered Clouds
8:53 AM 21.9 °F - 12.9 °F 68% 30.01 in 10.0 mi Calm Calm - N/A   Partly Cloudy
9:53 AM 28.0 °F 24.2 °F 12.9 °F 53% 29.99 in 10.0 mi NNW 3.5 mph - N/A   Partly Cloudy
10:53 AM 33.1 °F 28.7 °F 12.9 °F 43% 29.97 in 10.0 mi NNW 4.6 mph - N/A   Partly Cloudy
11:53 AM 35.1 °F 31.0 °F 12.9 °F 40% 29.95 in 10.0 mi North 4.6 mph - N/A   Partly Cloudy
12:53 PM 37.0 °F 31.6 °F 10.9 °F 34% 29.93 in 10.0 mi NNW 6.9 mph - N/A   Partly Cloudy
1:53 PM 37.9 °F 32.7 °F 10.9 °F 33% 29.91 in 10.0 mi NW 6.9 mph - N/A   Partly Cloudy
2:53 PM 39.0 °F 35.7 °F 12.9 °F 34% 29.91 in 10.0 mi WSW 4.6 mph - N/A   Partly Cloudy
3:53 PM 37.0 °F 31.6 °F 19.9 °F 50% 29.92 in 10.0 mi NNW 6.9 mph - N/A   Partly Cloudy
4:53 PM 33.1 °F 30.0 °F 18.0 °F 54% 29.95 in 10.0 mi North 3.5 mph - N/A   Clear
5:53 PM 28.0 °F - 17.1 °F 63% 29.97 in 10.0 mi Calm Calm - N/A   Clear
6:53 PM 27.0 °F - 16.0 °F 63% 30.00 in 10.0 mi Calm Calm - N/A   Clear
7:53 PM 25.0 °F - 17.1 °F 72% 30.02 in 10.0 mi Calm Calm - N/A   Clear
8:53 PM 24.1 °F - 17.1 °F 75% 30.03 in 10.0 mi Calm Calm - N/A   Clear
9:53 PM 21.9 °F - 16.0 °F 78% 30.03 in 10.0 mi Calm Calm - N/A   Clear
10:53 PM 19.9 °F - 15.1 °F 81% 30.04 in 10.0 mi Calm Calm - N/A   Clear
11:53 PM 19.0 °F - 14.0 °F 81% 30.05 in 10.0 mi Calm Calm - N/A   Clear